Location: George Washington National Forest Helicopter Landing Site
(38.6463°N, 79.0851°W)
Time: 04:44:53
(UTC-04:00)

Altair - All Passes

Search period start: 24 August 2019 00:00
Search period end: 03 September 2019 00:00
Orbit: 1501 x 1683 km, 47.2° (Epoch: 23 August)

Date Brightness Start Highest point End Pass type
(mag) Time Alt. Az. Time Alt. Az. Time Alt. Az.
24 Aug - 02:15:48 10° SSW 02:24:56 42° SE 02:33:48 10° ENE visible
24 Aug - 04:19:24 10° WSW 04:29:20 78° NNW 04:38:54 10° ENE visible
24 Aug - 06:25:45 10° WNW 06:35:08 51° N 06:44:12 10° ENE daylight
24 Aug - 08:31:40 10° WNW 08:41:08 66° NNE 08:50:17 10° ESE daylight
24 Aug - 10:36:47 10° WNW 10:45:46 55° SW 10:54:35 10° SSE daylight
24 Aug - 12:45:25 10° W 12:48:49 12° WSW 12:52:13 10° SW daylight
25 Aug - 01:50:52 10° SSW 01:59:50 39° SE 02:08:32 10° ENE visible
25 Aug - 03:54:09 10° WSW 04:04:07 82° NNW 04:13:44 10° ENE visible
25 Aug - 06:00:25 10° W 06:09:51 52° N 06:18:57 10° ENE visible
25 Aug - 08:06:26 10° WNW 08:15:54 63° NNE 08:25:03 10° E daylight
25 Aug - 10:11:33 10° WNW 10:20:40 59° SW 10:29:35 10° SE daylight
25 Aug - 12:19:21 10° W 12:23:49 15° WSW 12:28:16 10° SSW daylight
26 Aug - 01:25:58 10° SSW 01:34:43 36° SE 01:43:15 10° ENE visible
26 Aug - 03:28:54 10° WSW 03:38:54 86° NNW 03:48:34 10° ENE visible
26 Aug - 05:35:04 10° W 05:44:34 52° N 05:53:43 10° ENE visible
26 Aug - 07:41:12 10° WNW 07:50:40 61° NNE 07:59:48 10° E daylight
26 Aug - 09:46:19 10° WNW 09:55:33 64° SW 10:04:33 10° SE daylight
26 Aug - 11:53:33 10° W 11:58:48 17° SW 12:04:02 10° SSW daylight
27 Aug - 01:01:07 10° S 01:09:37 32° SE 01:17:55 10° ENE visible
27 Aug - 03:03:41 10° WSW 03:13:43 90° SE 03:23:24 10° ENE visible
27 Aug - 05:09:44 10° W 05:19:17 53° N 05:28:29 10° ENE visible
27 Aug - 07:15:57 10° WNW 07:25:26 59° NNE 07:34:33 10° E daylight
27 Aug - 09:21:07 10° WNW 09:30:27 69° SW 09:39:30 10° SE daylight
27 Aug - 11:27:53 10° W 11:33:47 19° SW 11:39:39 10° SSW daylight
28 Aug - 00:36:18 10° S 00:44:32 30° SE 00:52:34 10° ENE visible
28 Aug - 02:38:28 10° SW 02:48:31 85° SSE 02:58:13 10° ENE visible
28 Aug - 04:44:23 10° W 04:54:00 54° N 05:03:17 10° ENE visible
28 Aug - 06:50:41 10° WNW 07:00:10 57° NNE 07:09:18 10° E daylight
28 Aug - 08:55:53 10° WNW 09:05:18 74° SW 09:14:26 10° SE daylight
28 Aug - 11:02:19 10° W 11:08:45 21° SW 11:15:10 10° S daylight
29 Aug - 00:11:33 10° S 00:19:27 27° SE 00:27:11 10° ENE visible
29 Aug - 02:13:16 10° SW 02:23:19 81° SE 02:33:03 10° ENE visible
29 Aug - 04:19:01 10° W 04:28:43 56° NNW 04:38:04 10° ENE visible
29 Aug - 06:25:24 10° WNW 06:34:54 56° NNE 06:44:02 10° E daylight
29 Aug - 08:30:40 10° WNW 08:40:10 79° SW 08:49:21 10° SE daylight
29 Aug - 10:36:48 10° WNW 10:43:44 24° SW 10:50:34 10° S daylight
29 Aug - 23:46:51 10° S 23:54:22 24° SE 00:01:44 10° ENE visible
30 Aug - 01:48:05 10° SW 01:58:08 76° SE 02:07:51 10° ENE visible
30 Aug - 03:53:40 10° W 04:03:27 57° NNW 04:12:51 10° ENE visible
30 Aug - 06:00:07 10° WNW 06:09:38 55° N 06:18:46 10° E visible
30 Aug - 08:05:27 10° WNW 08:15:01 84° SW 08:24:15 10° SE daylight
30 Aug - 10:11:22 10° WNW 10:18:42 27° SW 10:25:56 10° S daylight
30 Aug - 23:22:14 10° S 23:29:17 22° SE 23:36:14 10° E visible
31 Aug - 01:22:56 10° SW 01:32:57 71° SE 01:42:40 10° ENE visible
31 Aug - 03:28:21 10° W 03:38:10 59° NNW 03:47:39 10° ENE visible
31 Aug - 05:34:50 10° WNW 05:44:22 53° N 05:53:30 10° E visible
31 Aug - 07:40:14 10° WNW 07:49:51 88° SSW 07:59:07 10° SE daylight
31 Aug - 09:45:58 10° WNW 09:53:40 30° SW 10:01:13 10° S daylight
31 Aug - 22:57:41 10° SSE 23:04:14 20° SE 23:10:40 10° E visible
01 Sep - 00:57:48 10° SW 01:07:47 67° SE 01:17:29 10° ENE visible
01 Sep - 03:03:00 10° W 03:12:54 61° NNW 03:22:26 10° ENE visible
01 Sep - 05:09:31 10° WNW 05:19:04 53° N 05:28:15 10° E visible
01 Sep - 07:15:01 10° WNW 07:24:41 87° NNE 07:33:58 10° ESE daylight
01 Sep - 09:20:36 10° WNW 09:28:37 33° SW 09:36:28 10° S daylight
01 Sep - 22:33:15 10° SSE 22:39:10 17° ESE 22:45:00 10° E night (unlit)
02 Sep - 00:32:42 10° SW 00:42:37 62° SE 00:52:16 10° ENE visible
02 Sep - 02:37:40 10° W 02:47:37 64° NNW 02:57:15 10° ENE visible
02 Sep - 04:44:13 10° WNW 04:53:47 52° N 05:02:59 10° E visible
02 Sep - 06:49:47 10° WNW 06:59:29 83° NNE 07:08:50 10° ESE daylight
02 Sep - 08:55:15 10° WNW 09:03:34 36° SW 09:11:40 10° SSE daylight
02 Sep - 22:08:59 10° SSE 22:14:07 15° ESE 22:19:12 10° E night (unlit)
